星链-1990 (STARLINK-1990 )

导读

STARLINK-1990是美国SpaceX公司星链(Starlink)卫星互联网星座的成员,于2021年2月4日发射升空。星链项目旨在通过近地轨道部署大规模卫星星座,为全球提供高速低延迟互联网服务。该卫星采用平板设计,配备氪离子推进器,负责轨道维持与脱轨,加入星座后为偏远地区及传统网络覆盖不足区域提供宽带接入支持,是星链全球组网进程中的一部分。

Basic Information
目录编号:
47586
目录名称:
STARLINK-1990
国际标识:
2021-009AQ
轨道中心:
EARTH
卫星名称:
星链-1990
卫星全名:
星链-1990 (STARLINK-1990 )
卫星状态:
已陨落 最后检测时间 2025-03-07
发射日期:
2021-02-04 UTC
国别 :
美国 (US)
星等 :
--
Orbit Information
数据来源 国际轨道数据
星历时间: 2025-03-07T06:41:54+0800
轨道信息已过期468天
半长轴: 6556.774km
偏心率: 0.0008076
轨道倾角: 53.029°
近地点辐角 311.129°
升交点赤经 210.425°
平近点角 141.337°
近地点: 173.343km
远地点: 183.935km
周期: 88.063分钟
每日圈数: 16.351874
Detailed Information
固有亮度:
5
最大亮度:
2.5
卫星平台:
Starlink V1.0
覆盖范围:
全球
运营商:
太空探索技术公司
运营商所在国:
美国
制造商(研发单位):
太空探索技术公司
制造商所在国:
美国
使用方式:
暂无
Satellite Introduction
星链(Starlink)计划是由太空探索技术公司(SpaceX)提出的一个巨型低轨卫星互联网星座项目,计划在2019年至2024年间在太空搭建由约1.2万颗卫星组成的“星链”网络,其中1584颗将部署在地球上空550千米处的近地轨道,并从2020年开始工作。该卫星仍在工作。